Location: La Trinit�
(48.1620°N, 3.4512°W)
Time: 01:47:49
(UTC+00:00)

Iridium 4 Rocket - Pass Details

Date: 08 May 2021
Orbit: 583 x 906 km, 86.9° (Epoch: 13 June)

Event Time Altitude Azimuth Distance (km) Brightness Sun altitude
Exits shadow 22:01:49 28° 176° (S) 1,576 4.6 -18.5°
Maximum altitude 22:04:59 83° 91° (E) 901 3.7 -18.8°
Drops below altitude 10° 22:10:56 10° 4° (N) 2,597 7.0 -19.3°
Sets 22:13:25 0° 4° (N) 3,545 7.9 -19.5°
